EW1669 Weather Reports


time (UTC)temp
C
wind
direction
speed
KPH
gust
KPH
rain 1hr
cm
rain 24hr
cm
rain mn
cm
humidity
%
barometer
mb
20260507012906 21 241 0.0 0.0 0.00 0.00 0.00 19 1014.6
20260507012054 21 242 0.0 0.0 0.00 0.00 0.00 19 1014.3
20260507011510 21 226 0.0 0.0 0.00 0.00 0.00 18 1014.3
20260507010855 22 226 0.0 0.0 0.00 0.00 0.00 17 1014.3
20260507010517 22 240 0.0 0.0 0.00 0.00 0.00 16 1013.9
20260507005703 22 211 0.0 0.0 0.00 0.00 0.00 16 1013.9
20260507005049 22 245 0.0 0.0 0.00 0.00 0.00 15 1013.9
20260507004513 22 181 0.0 9.7 0.00 0.00 0.00 16 1013.6
20260507003850 22 197 3.2 9.7 0.00 0.00 0.00 15 1013.9
20260507003307 22 205 0.0 0.0 0.00 0.00 0.00 16 1013.9
20260507002642 22 217 0.0 0.0 0.00 0.00 0.00 15 1013.6
20260507002051 22 227 0.0 0.0 0.00 0.00 0.00 14 1013.3
20260507001547 23 205 0.0 0.0 0.00 0.00 0.00 14 1013.3
20260507001450 23 195 0.0 0.0 0.00 0.00 0.00 14 1013.6
20260507000300 23 220 0.0 1.6 0.00 0.00 0.00 14 1013.6
20260506235945 23 253 0.0 9.7 0.00 0.00 0.00 14 1013.3
20260506235204 23 187 1.6 9.7 0.00 0.00 0.00 13 1013.9
20260506234540 23 237 0.0 6.4 0.00 0.00 0.00 13 1013.3
20260506233953 23 227 0.0 1.6 0.00 0.00 0.00 14 1013.6
20260506233339 22 231 0.0 12.9 0.00 0.00 0.00 14 1013.3
20260506232754 23 217 9.7 12.9 0.00 0.00 0.00 14 1013.6
20260506232152 23 238 0.0 3.2 0.00 0.00 0.00 14 1013.6
20260506231549 23 243 0.0 3.2 0.00 0.00 0.00 13 1013.3
20260506230950 23 195 0.0 0.0 0.00 0.00 0.00 14 1013.6
20260506230349 23 220 0.0 0.0 0.00 0.00 0.00 14 1013.3
20260506225757 23 210 0.0 1.6 0.00 0.00 0.00 14 1013.6
20260506225406 24 178 0.0 0.0 0.00 0.00 0.00 13 1013.6
20260506224541 24 211 0.0 6.4 0.00 0.00 0.00 14 1013.6
20260506224001 24 184 0.0 1.6 0.00 0.00 0.00 13 1013.3
20260506223355 24 197 0.0 0.0 0.00 0.00 0.00 13 1013.6
20260506222751 25 183 0.0 0.0 0.00 0.00 0.00 14 1013.6
20260506222154 24 194 0.0 6.4 0.00 0.00 0.00 14 1013.6
20260506221550 25 210 1.6 6.4 0.00 0.00 0.00 14 1013.6
20260506221217 24 201 0.0 3.2 0.00 0.00 0.00 14 1013.6
20260506220343 24 220 1.6 3.2 0.00 0.00 0.00 15 1013.6
20260506215759 23 206 0.0 0.0 0.00 0.00 0.00 15 1013.9
20260506215149 23 161 0.0 3.2 0.00 0.00 0.00 17 1013.9
20260506214550 23 263 0.0 4.8 0.00 0.00 0.00 16 1013.9
20260506213948 24 184 3.2 12.9 0.00 0.00 0.00 15 1013.9
20260506213403 24 206 4.8 12.9 0.00 0.00 0.00 15 1013.9
20260506212811 24 179 0.0 4.8 0.00 0.00 0.00 16 1013.9
20260506212205 23 222 1.6 4.8 0.00 0.00 0.00 18 1013.9
20260506211551 22 196 0.0 11.3 0.00 0.00 0.00 19 1013.9
20260506211002 23 229 0.0 14.5 0.00 0.00 0.00 20 1014.3
20260506210351 22 198 3.2 17.7 0.00 0.00 0.00 20 1014.3
20260506205803 22 209 4.8 17.7 0.00 0.00 0.00 20 1014.3
20260506205250 22 206 0.0 11.3 0.00 0.00 0.00 20 1014.3
20260506204646 22 242 6.4 16.1 0.00 0.00 0.00 21 1014.6
20260506204526 23 201 6.4 16.1 0.00 0.00 0.00 20 1015.0
20260506203511 22 185 0.0 17.7 0.00 0.00 0.00 21 1014.6
20260506203009 22 210 0.0 3.2 0.00 0.00 0.00 21 1014.3
20260506202352 22 141 1.6 9.7 0.00 0.00 0.00 21 1014.6
20260506201752 22 122 0.0 11.3 0.00 0.00 0.00 23 1014.6
20260506201416 21 203 4.8 14.5 0.00 0.00 0.00 22 1014.6
20260506200551 22 206 3.2 6.4 0.00 0.00 0.00 22 1015.0
20260506200016 22 208 0.0 1.6 0.00 0.00 0.00 22 1015.0
20260506195350 22 192 0.0 20.9 0.00 0.00 0.00 23 1014.6
20260506194753 22 197 6.4 20.9 0.00 0.00 0.00 21 1014.6
20260506194153 21 242 0.0 1.6 0.00 0.00 0.00 23 1014.6
20260506193552 22 215 0.0 4.8 0.00 0.00 0.00 21 1015.3
20260506193009 21 205 0.0 4.8 0.00 0.00 0.00 22 1014.6
20260506192612 22 206 0.0 0.0 0.00 0.00 0.00 22 1015.0
20260506191751 22 200 0.0 6.4 0.00 0.00 0.00 22 1015.3
20260506191156 21 218 0.0 1.6 0.00 0.00 0.00 23 1015.0
20260506190545 21 330 0.0 6.4 0.00 0.00 0.00 26 1015.3
20260506190217 20 208 0.0 30.6 0.00 0.00 0.00 27 1015.3
20260506185351 20 212 0.0 4.8 0.00 0.00 0.00 28 1015.3
20260506184749 20 155 0.0 6.4 0.00 0.00 0.00 31 1015.6
20260506184158 21 215 0.0 4.8 0.00 0.00 0.00 30 1015.6
20260506183816 21 193 3.2 11.3 0.00 0.00 0.00 29 1015.6
20260506183047 20 199 0.0 17.7 0.00 0.00 0.00 30 1015.6
20260506182441 20 208 9.7 17.7 0.00 0.00 0.00 29 1015.6
20260506181848 20 209 1.6 11.3 0.00 0.00 0.00 30 1015.6
20260506181505 20 248 0.0 12.9 0.00 0.00 0.00 29 1016.0
20260506180652 21 182 4.8 12.9 0.00 0.00 0.00 29 1016.0
20260506180110 20 216 4.8 9.7 0.00 0.00 0.00 29 1016.0
20260506175451 21 209 0.0 3.2 0.00 0.00 0.00 30 1015.6
20260506174851 20 183 1.6 3.2 0.00 0.00 0.00 30 1015.6
20260506174311 19 193 0.0 12.9 0.00 0.00 0.00 31 1015.6
20260506173652 20 220 0.0 3.2 0.00 0.00 0.00 32 1016.3
20260506173042 20 273 0.0 4.8 0.00 0.00 0.00 32 1016.3
20260506172501 19 225 0.0 11.3 0.00 0.00 0.00 31 1016.0
20260506172112 19 258 0.0 0.0 0.00 0.00 0.00 32 1016.3
20260506171251 19 341 0.0 0.0 0.00 0.00 0.00 33 1016.3
20260506170643 18 329 0.0 0.0 0.00 0.00 0.00 36 1016.3
20260506170042 17 293 0.0 0.0 0.00 0.00 0.00 37 1016.3
20260506165436 16 5 0.0 9.7 0.00 0.00 0.00 43 1016.3
20260506164921 15 202 0.0 0.0 0.00 0.00 0.00 44 1016.3
20260506164405 15 136 0.0 0.0 0.00 0.00 0.00 44 1016.3
20260506163757 15 192 0.0 0.0 0.00 0.00 0.00 49 1016.3
20260506163153 15 184 0.0 0.0 0.00 0.00 0.00 48 1016.3
20260506162549 14 120 0.0 0.0 0.00 0.00 0.00 52 1016.3
20260506161946 13 149 0.0 0.0 0.00 0.00 0.00 53 1016.3
20260506161346 13 153 0.0 6.4 0.00 0.00 0.00 57 1016.3
20260506160758 12 154 0.0 3.2 0.00 0.00 0.00 58 1016.3
20260506160151 12 145 0.0 0.0 0.00 0.00 0.00 58 1016.0
20260506155537 11 160 0.0 0.0 0.00 0.00 0.00 61 1016.0
20260506154949 11 170 0.0 3.2 0.00 0.00 0.00 62 1016.3
20260506154349 11 171 1.6 6.4 0.00 0.00 0.00 63 1015.6
20260506153747 11 160 0.0 6.4 0.00 0.00 0.00 65 1016.0
20260506153146 10 187 0.0 6.4 0.00 0.00 0.00 66 1016.0
20260506152553 10 171 0.0 3.2 0.00 0.00 0.00 69 1016.0
20260506152004 9 163 0.0 9.7 0.00 0.00 0.00 70 1016.0
20260506151354 9 146 0.0 11.3 0.00 0.00 0.00 70 1016.3
20260506150846 9 140 1.6 11.3 0.00 0.00 0.00 70 1016.3
20260506150252 9 117 0.0 3.2 0.00 0.00 0.00 71 1016.3
20260506145650 8 118 0.0 0.0 0.00 0.00 0.00 72 1016.0
20260506145055 8 104 0.0 9.7 0.00 0.00 0.00 74 1016.7
20260506144451 8 154 0.0 11.3 0.00 0.00 0.00 75 1016.3
20260506143853 7 152 0.0 14.5 0.00 0.00 0.00 76 1016.7
20260506143249 7 147 6.4 14.5 0.00 0.00 0.00 76 1016.3
20260506142707 7 104 0.0 9.7 0.00 0.00 0.00 79 1016.7
20260506142141 6 144 6.4 9.7 0.00 0.00 0.00 79 1016.7
20260506141856 6 121 3.2 4.8 0.00 0.00 0.00 80 1016.3
20260506141050 6 132 1.6 4.8 0.00 0.00 0.00 81 1016.7
20260506140445 6 138 4.8 11.3 0.00 0.00 0.00 83 1016.7
20260506135850 6 125 3.2 6.4 0.00 0.00 0.00 83 1016.3
20260506135253 6 127 3.2 9.7 0.00 0.00 0.00 82 1016.3
20260506135126 5 133 6.4 9.7 0.00 0.00 0.00 84 1016.7
20260506134056 5 110 4.8 9.7 0.00 0.00 0.00 85 1016.7
20260506133445 5 139 8.0 12.9 0.00 0.00 0.00 85 1016.7
20260506132839 5 113 8.0 12.9 0.00 0.00 0.00 85 1016.3
20260506132236 5 121 9.7 14.5 0.00 0.00 0.00 85 1016.3
20260506131622 5 132 6.4 17.7 0.00 0.00 0.00 84 1016.3
20260506131044 5 125 9.7 17.7 0.00 0.00 0.00 84 1016.0
20260506130442 5 105 9.7 14.5 0.00 0.00 0.00 84 1016.0
20260506125851 5 121 1.6 14.5 0.00 0.00 0.00 85 1016.0
20260506125252 5 105 4.8 12.9 0.00 0.00 0.00 85 1016.0
20260506124652 5 157 9.7 12.9 0.00 0.00 0.00 85 1015.6
20260506124045 5 95 1.6 12.9 0.00 0.00 0.00 85 1015.6
20260506123451 5 122 6.4 9.7 0.00 0.00 0.00 85 1015.6
20260506122855 5 122 0.0 1.6 0.00 0.00 0.00 85 1015.6
20260506122338 5 121 0.0 9.7 0.00 0.00 0.00 85 1015.6
20260506122018 4 116 1.6 9.7 0.00 0.00 0.00 85 1015.6
20260506121154 4 140 8.0 9.7 0.00 0.00 0.00 85 1016.0
20260506120813 4 73 8.0 9.7 0.00 0.00 0.00 85 1015.6
20260506115949 4 116 3.2 12.9 0.00 0.00 0.00 85 1015.6
20260506115340 4 102 9.7 12.9 0.00 0.00 0.00 85 1015.3
20260506115011 4 103 1.6 4.8 0.00 0.00 0.00 84 1016.0
20260506114626 4 104 3.2 4.8 0.00 0.00 0.00 84 1015.6
20260506113817 4 86 1.6 6.4 0.00 0.00 0.00 84 1015.6
20260506112953 4 79 3.2 6.4 0.00 0.00 0.00 83 1015.6
20260506112352 4 93 1.6 4.8 0.00 0.00 0.00 83 1015.3
20260506111750 4 76 1.6 11.3 0.00 0.00 0.00 83 1015.3
20260506111234 4 73 3.2 4.8 0.00 0.00 0.00 83 1015.0
20260506110652 4 71 3.2 4.8 0.00 0.00 0.00 83 1015.0
20260506110051 4 90 3.2 4.8 0.00 0.00 0.00 83 1015.3
20260506105539 4 71 1.6 6.4 0.00 0.00 0.00 83 1015.0
20260506105001 4 95 4.8 6.4 0.00 0.00 0.00 83 1015.3
20260506104431 4 72 4.8 6.4 0.00 0.00 0.00 83 1015.0
20260506103846 4 70 3.2 3.2 0.00 0.00 0.00 82 1015.0
20260506103248 4 59 1.6 9.7 0.00 0.00 0.00 83 1015.0
20260506102648 4 20 1.6 4.8 0.00 0.00 0.00 82 1015.3
20260506102046 4 20 0.0 9.7 0.00 0.00 0.00 82 1015.3
20260506101454 4 20 4.8 9.7 0.00 0.00 0.00 82 1015.0
20260506100849 4 17 1.6 11.3 0.00 0.00 0.00 81 1015.0
20260506100256 4 17 9.7 11.3 0.00 0.00 0.00 81 1015.0
20260506095640 4 16 3.2 6.4 0.00 0.00 0.00 80 1014.6
20260506095050 4 15 3.2 4.8 0.00 0.00 0.00 80 1014.6
20260506094454 5 15 0.0 9.7 0.00 0.00 0.00 79 1015.0
20260506093923 5 15 3.2 4.8 0.00 0.00 0.00 79 1014.6
20260506093353 5 14 3.2 4.8 0.00 0.00 0.00 78 1014.6
20260506093033 5 12 3.2 4.8 0.00 0.00 0.00 78 1014.6
20260506092151 5 11 3.2 9.7 0.00 0.00 0.00 78 1015.0
20260506091553 5 11 1.6 9.7 0.00 0.00 0.00 77 1014.6
20260506090951 5 11 1.6 6.4 0.00 0.00 0.00 77 1015.0
20260506090347 5 10 3.2 11.3 0.00 0.00 0.00 77 1014.6
20260506085805 6 38 6.4 11.3 0.00 0.00 0.00 77 1014.3
20260506085210 6 45 0.0 9.7 0.00 0.00 0.00 77 1014.3
20260506084548 6 58 3.2 9.7 0.00 0.00 0.00 77 1014.3
20260506083953 6 68 3.2 6.4 0.00 0.00 0.00 76 1013.9
20260506083357 6 77 3.2 9.7 0.00 0.00 0.00 76 1013.9
20260506082748 7 70 6.4 14.5 0.00 0.00 0.00 75 1013.6
20260506082150 7 69 3.2 14.5 0.00 0.00 0.00 75 1013.6
20260506081602 7 68 4.8 14.5 0.00 0.00 0.00 75 1013.3
20260506080949 7 64 3.2 6.4 0.00 0.00 0.00 74 1013.3
20260506080348 7 78 3.2 9.7 0.00 0.00 0.00 73 1013.6
20260506073344 7 23 3.2 9.7 0.00 0.00 0.00 72 1013.3
20260506072758 8 65 3.2 9.7 0.00 0.00 0.00 71 1013.3
20260506072654 8 22 4.8 9.7 0.00 0.00 0.00 71 1012.9
20260506071545 8 75 4.8 11.3 0.00 0.00 0.00 70 1013.3
20260506070952 8 27 8.0 11.3 0.00 0.00 0.00 70 1013.6
20260506070432 8 40 4.8 12.9 0.00 0.00 0.00 69 1013.3
20260506062512 10 120 0.0 1.6 0.00 0.00 0.00 65 1012.9
20260506061646 11 137 0.0 9.7 0.00 0.00 0.00 64 1012.9
20260506061039 10 116 0.0 4.8 0.00 0.00 0.00 64 1012.6
20260506060445 11 82 0.0 4.8 0.00 0.00 0.00 64 1012.6
20260506051049 12 126 3.2 4.8 0.00 0.00 0.00 59 1012.9
20260506050444 12 116 0.0 4.8 0.00 0.00 0.00 58 1012.6
20260506044916 12 105 0.0 9.7 0.00 0.00 0.00 57 1012.6
20260506044050 12 102 0.0 11.3 0.00 0.00 0.00 56 1012.6
20260506043453 12 85 0.0 9.7 0.00 0.00 0.00 56 1012.6
20260506042850 12 114 6.4 16.1 0.00 0.00 0.00 56 1012.6
20260506042249 12 54 1.6 6.4 0.00 0.00 0.00 55 1012.6
20260506042135 12 63 0.0 12.9 0.00 0.00 0.00 55 1012.6
20260506041103 12 108 6.4 14.5 0.00 0.00 0.00 55 1012.6
20260506040445 12 85 3.2 17.7 0.00 0.00 0.00 55 1012.6
20260506040126 12 106 1.6 4.8 0.00 0.00 0.00 54 1012.6
20260506035254 12 84 0.0 3.2 0.00 0.00 0.00 54 1012.9
20260506034645 12 90 0.0 11.3 0.00 0.00 0.00 54 1012.6
20260506034321 12 79 0.0 1.6 0.00 0.00 0.00 53 1012.6
20260506033934 13 50 0.0 4.8 0.00 0.00 0.00 52 1012.6
20260506032950 13 18 1.6 4.8 0.00 0.00 0.00 52 1012.3
20260506032347 13 80 0.0 9.7 0.00 0.00 0.00 52 1012.3
20260506031735 13 84 0.0 1.6 0.00 0.00 0.00 52 1012.3
20260506031149 13 100 0.0 14.5 0.00 0.00 0.00 51 1011.9
20260506031037 13 20 4.8 20.9 0.00 0.00 0.00 51 1011.9
20260506025949 13 95 9.7 20.9 0.00 0.00 0.00 51 1011.6
20260506025318 13 70 0.0 9.7 0.00 0.00 0.00 51 1011.2
20260506024756 13 31 3.2 9.7 0.00 0.00 0.00 52 1011.6
20260506024149 14 61 0.0 6.4 0.00 0.00 0.00 52 1011.6
20260506023549 14 56 0.0 11.3 0.00 0.00 0.00 50 1011.2
20260506023204 15 93 1.6 6.4 0.00 0.00 0.00 49 1011.2
20260506022346 15 24 3.2 14.5 0.00 0.00 0.00 48 1011.2
20260506022021 15 72 0.0 14.5 0.00 0.00 0.00 47 1010.9
20260506021142 16 7 8.0 14.5 0.00 0.00 0.00 46 1010.9
20260506020550 16 19 4.8 14.5 0.00 0.00 0.00 43 1010.9
20260506015950 17 49 3.2 17.7 0.00 0.00 0.00 42 1010.6
20260506015845 17 23 6.4 14.5 0.00 0.00 0.00 39 1010.6
20260506015038 17 11 0.0 1.6 0.00 0.00 0.00 40 1010.6
20260506014356 17 350 0.0 12.9 0.00 0.00 0.00 44 1010.2
20260506013549 17 332 1.6 12.9 0.00 0.00 0.00 45 1010.2
20260506012949 17 333 0.0 16.1 0.00 0.00 0.00 45 1010.2